Location: Chateh
(58.6667°N, 118.6000°W)
Time: 09:22:34
(UTC+00:00)

BEESAT 2 - Visible Passes

Search period start: 02 December 2023 00:00
Search period end: 12 December 2023 00:00
Orbit: 359 x 384 km, 64.9° (Epoch: 01 December)

Date Brightness Start Highest point End Pass type
(mag) Time Alt. Az. Time Alt. Az. Time Alt. Az.
02 Dec ? 14:59:54 10° SSW 15:02:52 45° SE 15:05:54 10° ENE visible
03 Dec ? 13:58:51 10° S 14:01:13 20° SE 14:03:35 10° ENE visible
04 Dec ? 14:30:05 10° SSW 14:33:04 49° SE 14:36:05 10° ENE visible
05 Dec ? 13:28:05 10° S 13:30:30 21° SE 13:32:56 10° ENE visible
05 Dec ? 15:01:37 10° WSW 15:04:40 70° NW 15:07:45 10° NE visible
06 Dec ? 13:59:29 19° SSW 14:01:27 52° SE 14:04:27 10° ENE visible
06 Dec ? 15:33:05 10° W 15:35:59 37° NNW 15:38:52 10° NE visible
07 Dec ? 12:58:20 22° ESE 12:58:20 22° ESE 13:00:27 10° ENE visible
07 Dec ? 14:30:14 20° WSW 14:32:08 67° NNW 14:35:10 10° NE visible
08 Dec ? 13:28:25 49° ESE 13:28:25 49° ESE 13:30:59 10° ENE visible
08 Dec ? 15:00:16 14° W 15:02:30 36° NNW 15:05:21 10° NE visible
09 Dec ? 12:26:02 10° ENE 12:26:02 10° ENE 12:26:07 10° ENE visible
09 Dec ? 13:57:52 65° NNW 13:57:52 65° NNW 14:00:46 10° NE visible
09 Dec ? 15:29:53 10° WNW 15:32:31 26° N 15:35:08 10° NE visible
10 Dec ? 12:54:55 17° ENE 12:54:55 17° ENE 12:55:43 10° ENE visible
10 Dec ? 14:26:42 33° NW 14:27:12 36° NNW 14:30:01 10° NE visible
11 Dec ? 13:23:14 23° NE 13:23:14 23° NE 13:24:34 10° NE visible
11 Dec ? 14:55:00 19° NW 14:56:16 26° N 14:58:51 10° NE visible
